Regional Weather Roundup
Issued by NWS

Home | Current Version | Previous Version | Text Only | Print | Product List | Glossary On
Versions: 1 2 3 4 5 6 7 8 9 10 11 12 13 14 15 16 17 18 19 20 21 22 23 24 25 26 27 28 29 30 31 32 33 34 35 36 37 38 39 40 41 42 43 44 45 46 47 48 49 50
000
ASUS45 KABQ 020410
RWRNM
WEATHER ROUNDUP FOR NEW MEXICO
NATIONAL WEATHER SERVICE ALBUQUERQUE NM
1000 PM MDT MON SEP 01 2014

NOTE: "FAIR" MEANS FEW OR NO CLOUDS BELOW 12,000 FEET AGL WITH NO
       SIGNIFICANT WEATHER OR OBSTRUCTIONS TO VISION.

      THIS PRODUCT IS RELEASED AS TWO VERSIONS.  ONE VERSION NEAR
      THE TOP OF THE HOUR CONTAINING PRELIMINARY DATA FROM ALBUQUERQUE
      AND OTHER STATIONS.  A FINAL VERSION WITH ADDITIONAL DATA IS
      ISSUED ABOUT 10 MINUTES AFTER THE HOUR.

NMZ501-503-504-510>518-020500-
NORTHWEST PLATEAU/NORTHCENTRAL MOUNTAINS

CITY           SKY/WX    TMP DP  RH WIND       PRES   REMARKS
FARMINGTON     CLEAR     69  30  23 CALM      30.07R
LOS ALAMOS     CLEAR     73  28  18 NW3       30.23R
SANTA FE       CLEAR     71  32  23 N12       30.14R
ANGEL FIRE     FAIR      52  30  43 CALM      30.32R

$$
NMZ402-403-502-505>509-020500-
WESTCENTRAL MOUNTAINS/SOUTHWEST MOUNTAINS

CITY           SKY/WX    TMP DP  RH WIND       PRES   REMARKS
GALLUP         CLEAR     67  31  26 CALM      30.18R
SILVER CITY    CLEAR     68  32  26 N12       30.13R

$$
NMZ407-409-411-412-020500-
SOUTHERN DESERTS

CITY           SKY/WX    TMP DP  RH WIND       PRES   REMARKS
LORDSBURG      FAIR      75  36  23 W6        30.03R
DEMING         CLEAR     81  35  19 W9        30.01R
LAS CRUCES     CLEAR     80  32  17 W10       30.02S
HOLLOMAN AFB   CLEAR     79  36  21 E7        29.96R
ALAMOGORDO     CLEAR     75  34  22 E7        29.98S
T OR C         CLEAR     81  34  18 S5        30.01R

$$
NMZ519>523-020500-
CENTRAL VALLEYS/CENTRAL HIGHLANDS

CITY           SKY/WX    TMP DP  RH WIND       PRES   REMARKS
ALBUQUERQUE    CLEAR     82  38  20 SE3       30.06R
DOUBLE EAGLE   CLEAR     77  36  22 NW6       30.10R
MORIARTY ARPT  FAIR      61  42  49 CALM      30.15R
CLINES CORNERS CLEAR     64  36  35 W7        30.19R
BELEN          FAIR      72  36  26 SW6       30.05R
SOCORRO        FAIR      78  41  27 SW9       30.03R

$$
NMZ524>526-539-540-020500-
SOUTHCENTRAL MOUNTAINS

CITY           SKY/WX    TMP DP  RH WIND       PRES   REMARKS
RUIDOSO        CLEAR     66  36  32 SW9       30.22S

$$
NMZ527>531-020500-
NORTHEAST HIGHLANDS/NORTHEAST PLAINS

CITY           SKY/WX    TMP DP  RH WIND       PRES   REMARKS
LAS VEGAS      CLEAR     66  34  30 W7        30.18R
RATON          CLEAR     72  28  19 W3        30.09R
CLAYTON        CLEAR     69  57  65 SE7       30.02R

$$
NMZ532>537-020500-
EASTCENTRAL PLAINS

CITY           SKY/WX    TMP DP  RH WIND       PRES   REMARKS
TUCUMCARI      CLEAR     76  42  29 SW9       29.92R
CANNON AFB     CLEAR     80  43  26 SW3       29.97R
CLOVIS AIRPORT   N/A     75  48  38 SW6       29.99R

$$
NMZ028-029-538-020500-
SOUTHEAST PLAINS

CITY           SKY/WX    TMP DP  RH WIND       PRES   REMARKS
ROSWELL        CLEAR     81  41  24 SW8       29.91R
CARLSBAD       CLEAR     87  38  17 SW12      29.89R
HOBBS          CLEAR     81  39  22 CALM      29.94R


$$



USA.gov is the U.S. government's official web portal to all federal, state and local government web resources and services.